Location: Spring Mountain Observatory
(40.2501°N, 75.4333°W)
Time: 04:08:02
(UTC-04:00)

Hubble Space Telescope - Visible Passes

Search period start: 21 July 2018 00:00
Search period end: 31 July 2018 00:00
Orbit: 537 x 541 km, 28.5° (Epoch: 20 July)

Date Brightness Start Highest point End Pass type
(mag) Time Alt. Az. Time Alt. Az. Time Alt. Az.
21 Jul 2.8 05:02:44 10° SW 05:04:38 13° S 05:06:34 10° SSE visible
22 Jul 2.8 04:53:17 11° SSW 04:54:09 12° SSW 04:55:38 10° S visible
23 Jul 3.0 04:44:00 10° S 04:44:00 10° S 04:44:09 10° S visible
30 Jul 3.2 22:15:55 10° SW 22:16:15 11° SSW 22:16:15 11° SSW visible
